Regional Weather Roundup
Issued by NWS

Home | Current Version | Previous Version | Text Only | Print | Product List | Glossary Off
Versions: 1 2 3 4 5 6 7 8 9 10 11 12 13 14 15 16 17 18 19 20 21 22 23 24 25 26 27 28 29 30 31 32 33 34 35 36 37 38 39 40 41 42 43 44 45 46 47 48 49 50

000
ASUS45 KSLC 022010
RWRUT

UTAH REGIONAL WEATHER ROUNDUP
NATIONAL WEATHER SERVICE SALT LAKE CITY UT
200 PM MDT TUE JUN 02 2015

UTZ001>011-023>025-022100-

NORTHERN UTAH

CITY           SKY/WX    TMP DP  RH WIND       PRES   REMARKS
BRIGHAM CITY   SUNNY     73  48  40 SW9       29.97F
HILL AFB       SUNNY     73  42  32 W8        29.99S
LOGAN          SUNNY     73  47  39 VRB3      29.97F
OGDEN          SUNNY     75  45  34 VRB7      29.97F
PROVO AIRPORT  MOSUNNY   81  28  15 SW5       29.95F
SALT LAKE CITY MOSUNNY   78  46  32 N13       29.94F
VERNAL         SUNNY     81  31  16 SW10      29.97F
WENDOVER       MOSUNNY   77  37  24 SE10      29.97S
HEBER CITY     SUNNY     79  27  14 SW14G20   30.00F
WEST JORDAN    SUNNY     75  45  33 NW18      29.96F

$$

UTZ012>022-026-027-022100-

SOUTHERN/CENTRAL UTAH

CITY           SKY/WX    TMP DP  RH WIND       PRES   REMARKS
BLANDING       SUNNY     81  16   9 SW14G24   30.15F
BRYCE CANYON   SUNNY     71  21  15 S8        30.17F
CEDAR CITY     SUNNY     79  23  12 MISG      30.03F
DELTA          SUNNY     81  22  11 W8        29.96F
HANKSVILLE     SUNNY     88  21   8 S8G20     29.94F
MILFORD        SUNNY     82  27  13 SW12G22   29.98F
MOAB/CYNLANDS  SUNNY     87  16   7 SW12G20   29.93F
PRICE          SUNNY     81  18   9 SE6       30.01F
ST GEORGE      CLEAR     90  27  10 N5        29.89F

$$

REGIONAL REPORTS     COLORADO/ARIZONA

CITY           SKY/WX    TMP DP  RH WIND       PRES   REMARKS
CRAIG, CO      SUNNY     78  29  16 W21G29    30.03F
GRAND JUNCTION SUNNY     84  23  10 NW9G22    29.95F
RIFLE          SUNNY     82  28  14 W16       29.99F
MONTROSE       SUNNY     84  18   8 SW16G24   30.04F
CORTEZ         SUNNY     82  16   8 SW12      30.11F
PAGE, AZ       SUNNY     89  13   6 SW13      29.95F
GRAND CANYON   SUNNY     77  17  10 SW14G31   30.15F
KINGMAN        SUNNY     89  20   8 SW20G31   29.96S
FLAGSTAFF      SUNNY     73  26  17 SW18G30   30.19F

$$

REGIONAL REPORTS    NEVADA/IDAHO/WYOMING

CITY           SKY/WX    TMP DP  RH WIND       PRES   REMARKS
LAS VEGAS, NV  SUNNY     91  21   8 S14G23    29.81F
ELY            SUNNY     74  39  28 SE6       30.05F
ELKO           SUNNY     71  32  23 SW13G23   30.04F
POCATELLO, ID  MOSUNNY   68  51  54 W15       30.02F
BURLEY         MOSUNNY   69  42  37 NW8       30.00F
EVANSTON, WY   SUNNY     70  36  28 W18       30.08S
ROCK SPRINGS   SUNNY     73  31  21 W15G22    30.04F
KEMMERER       MOSUNNY   70  32  24 SW21G31   30.08F

$$


USA.gov is the U.S. government's official web portal to all federal, state and local government web resources and services.